Location: Saint Louis
(38.6272°N, 90.1978°W)
Time: 19:10:44
(UTC-05:00)

ISS - Pass Details

Date: 11 January 2014
Orbit: 401 x 404 km, 51.6° (Epoch: 28 July)

Event Time Altitude Azimuth Distance (km) Brightness Sun altitude
Exits shadow 03:51:51 - 97° (E) 2,315 1.4 -39.8°
Enters shadow 04:55:01 -56° 227° (SW) 10,993 3.9 -27.4°
Maximum altitude 05:25:27 42° 136° (SE) 608 -2.1 -21.6°
